STARLINK-1043 (44748 NORAD) Tracking and Keplerian Element Data

This shows tracking and keplerian element data for the satellite.

Feedback or suggestion? Click here.




ElementValue
Catalog44748
NameSTARLINK-1043
Epoch Orbit2180
Epoch Day93.91667824
Epoch Year2020
RAAN233.6032
Inclination53.0076
Eccentricity0.0001636
Argument of Perigee74.6497
Mean Anonmoly254.0113
Mean Motion15.05567423
Decay Rate9.907E-05
L11 44748U 19074AM 20093.91667824 .00009907 00000-0 69840-3 0 9990
L22 44748 53.0076 233.6032 0001636 74.6497 254.0113 15.05567423 21807

Live tracking and technical data element details for STARLINK-1043 (NORAD 44748). STARLINK-1043 can be tracked NOW for your location showing map with azimuth and elevation plus other details from your city location.

Track the satellite on the map from your city or location and see movement details for azimuth, elevation, latitude, longitude, range, height, and movement on the map or in text.







IsCatalogInMostPopularTable: catalog: 44748, numindb: 119
Update: records affected: 1



GetName: 44748 STARLINK-1043

Hit Count: updated at: Fri, 10 Apr 2020 19:49:10 GMT